Location: ???? ?????
(30.0052°N, 31.2891°E)
Time: 07:06:32
(UTC+00:00)

Iridium 16 - Pass Details

Date: 28 January 2023
Orbit: 766 x 768 km, 86.4° (Epoch: 23 March)

Event Time Altitude Azimuth Distance (km) Brightness Sun altitude
Rises 03:07:16 0° 167° (SSE) 3,217 9.0 -21.8°
Reaches altitude 10° 03:09:39 10° 162° (SSE) 2,295 8.3 -21.3°
Maximum altitude 03:14:35 50° 88° (E) 970 6.4 -20.2°
Drops below altitude 10° 03:19:33 10° 14° (NNE) 2,309 8.0 -19.2°
Sets 03:21:57 0° 9° (N) 3,239 8.7 -18.7°
